| time (UTC) | temp F | wind direction | speed knots | gust knots | rain 1hr in | rain 24hr in | rain mn in | humidity % | barometer mb |
| 20260906034826 | 55 | 1.7 | 0.0 | 0.00 | 0.00 | 0.00 | 77 | 1021.0 | |
| 20260906033426 | 57 | 230 | 7.8 | 0.0 | 0.00 | 0.00 | 0.00 | 77 | 1021.0 |
| 20260906031925 | 57 | 230 | 7.8 | 0.0 | 0.00 | 0.00 | 0.00 | 77 | 1021.0 |
| 20260906030425 | 57 | 230 | 7.8 | 0.0 | 0.00 | 0.00 | 0.00 | ||
| 20260906024838 | 55 | 220 | 4.3 | 0.0 | 0.00 | 0.00 | 0.00 | 82 | 1021.0 |
| 20260906023311 | 55 | 220 | 4.3 | 0.0 | 0.00 | 0.00 | 0.00 | 82 | 1021.0 |
| 20260906021818 | 59 | 0.9 | 0.0 | 0.00 | 0.00 | 0.00 | 77 | 1021.0 | |
| 20260906020312 | 59 | 0.9 | 0.0 | 0.00 | 0.00 | 0.00 | 77 | 1021.0 | |
| 20260906014812 | 61 | 0.9 | 0.0 | 0.00 | 0.00 | 0.00 | 72 | 1021.0 | |
| 20260906013426 | 61 | 0.9 | 0.0 | 0.00 | 0.00 | 0.00 | 72 | 1021.0 | |
| 20260906011811 | 63 | 360 | 5.2 | 0.0 | 0.00 | 0.00 | 0.00 | 73 | 1021.0 |
| 20260906010311 | 63 | 360 | 5.2 | 0.0 | 0.00 | 0.00 | 0.00 | 73 | 1021.0 |
| 20260906004926 | 64 | 360 | 7.0 | 0.0 | 0.00 | 0.00 | 0.00 | 83 | 1020.0 |
| 20260906003436 | 64 | 360 | 7.0 | 0.0 | 0.00 | 0.00 | 0.00 | 83 | 1020.0 |
| 20260906001926 | 64 | 10 | 7.8 | 0.0 | 0.00 | 0.00 | 0.00 | 78 | 1020.0 |
| 20260906000415 | 64 | 10 | 7.8 | 0.0 | 0.00 | 0.00 | 0.00 | 78 | 1020.0 |
| 20260905234821 | 64 | 40 | 5.2 | 0.0 | 0.00 | 0.00 | 0.00 | 60 | 1020.0 |
| 20260905233311 | 64 | 40 | 5.2 | 0.0 | 0.00 | 0.00 | 0.00 | 60 | 1020.0 |
| 20260905231926 | 70 | 330 | 7.0 | 0.0 | 0.00 | 0.00 | 0.00 | 40 | 1019.0 |
| 20260905230343 | 70 | 330 | 7.0 | 0.0 | 0.00 | 0.00 | 0.00 | 40 | 1019.0 |
| 20260905224926 | 72 | 330 | 9.6 | 0.0 | 0.00 | 0.00 | 0.00 | 38 | 1019.0 |
| 20260905223325 | 72 | 330 | 9.6 | 0.0 | 0.00 | 0.00 | 0.00 | 38 | 1019.0 |
| 20260905221911 | 72 | 330 | 6.1 | 0.0 | 0.00 | 0.00 | 0.00 | 50 | 1019.0 |
| 20260905220426 | 72 | 330 | 6.1 | 0.0 | 0.00 | 0.00 | 0.00 | 50 | 1019.0 |
| 20260905214925 | 72 | 310 | 7.0 | 0.0 | 0.00 | 0.00 | 0.00 | 61 | 1019.0 |
| 20260905213311 | 72 | 310 | 7.0 | 0.0 | 0.00 | 0.00 | 0.00 | 61 | 1019.0 |
| 20260905211811 | 70 | 320 | 2.6 | 0.0 | 0.00 | 0.00 | 0.00 | 64 | 1019.0 |
| 20260905210311 | 70 | 320 | 2.6 | 0.0 | 0.00 | 0.00 | 0.00 | 64 | 1019.0 |
| 20260905204821 | 66 | 220 | 4.3 | 0.0 | 0.00 | 0.00 | 0.00 | 73 | 1018.0 |
| 20260905203311 | 66 | 220 | 4.3 | 0.0 | 0.00 | 0.00 | 0.00 | 73 | 1018.0 |
| 20260905201811 | 68 | 260 | 5.2 | 0.0 | 0.00 | 0.00 | 0.00 | 69 | 1018.0 |
| 20260905200426 | 70 | 260 | 4.3 | 0.0 | 0.00 | 0.00 | 0.00 | 64 | 1018.0 |
| 20260905194917 | 70 | 260 | 4.3 | 0.0 | 0.00 | 0.00 | 0.00 | 64 | 1018.0 |
| 20260905193311 | 70 | 260 | 4.3 | 0.0 | 0.00 | 0.00 | 0.00 | 64 | 1018.0 |
| 20260905191840 | 72 | 240 | 4.3 | 0.0 | 0.00 | 0.00 | 0.00 | 61 | 1018.0 |
| 20260905190312 | 72 | 240 | 4.3 | 0.0 | 0.00 | 0.00 | 0.00 | 61 | 1018.0 |
| 20260905184812 | 72 | 210 | 5.2 | 0.0 | 0.00 | 0.00 | 0.00 | 61 | 1018.0 |
| 20260905183316 | 72 | 210 | 5.2 | 0.0 | 0.00 | 0.00 | 0.00 | 61 | 1018.0 |
| 20260905181811 | 73 | 250 | 2.6 | 0.0 | 0.00 | 0.00 | 0.00 | 57 | 1018.0 |
| 20260905180311 | 73 | 250 | 2.6 | 0.0 | 0.00 | 0.00 | 0.00 | 57 | 1018.0 |
| 20260905174811 | 75 | 310 | 6.1 | 0.0 | 0.00 | 0.00 | 0.00 | 54 | 1018.0 |
| 20260905173311 | 75 | 310 | 6.1 | 0.0 | 0.00 | 0.00 | 0.00 | 54 | 1018.0 |
| 20260905171822 | 77 | 360 | 11.3 | 0.0 | 0.00 | 0.00 | 0.00 | 44 | 1017.0 |
| 20260905170311 | 77 | 360 | 11.3 | 0.0 | 0.00 | 0.00 | 0.00 | 44 | 1017.0 |
| 20260905164811 | 81 | 340 | 12.2 | 0.0 | 0.00 | 0.00 | 0.00 | 42 | 1016.0 |
| 20260905163312 | 81 | 340 | 12.2 | 0.0 | 0.00 | 0.00 | 0.00 | 42 | 1016.0 |
| 20260905161812 | 88 | 320 | 13.9 | 0.0 | 0.00 | 0.00 | 0.00 | 29 | 1015.0 |
| 20260905160312 | 88 | 320 | 13.9 | 0.0 | 0.00 | 0.00 | 0.00 | 29 | 1015.0 |
| 20260905154828 | 90 | 310 | 13.0 | 0.0 | 0.00 | 0.00 | 0.00 | 27 | 1015.0 |
| 20260905153311 | 90 | 310 | 13.0 | 0.0 | 0.00 | 0.00 | 0.00 | 27 | 1015.0 |
| 20260905151811 | 90 | 320 | 14.8 | 0.0 | 0.00 | 0.00 | 0.00 | 27 | 1014.0 |
| 20260905150312 | 90 | 320 | 14.8 | 0.0 | 0.00 | 0.00 | 0.00 | 27 | 1014.0 |
| 20260905144811 | 90 | 310 | 17.4 | 0.0 | 0.00 | 0.00 | 0.00 | 27 | 1014.0 |
| 20260905143311 | 90 | 310 | 17.4 | 0.0 | 0.00 | 0.00 | 0.00 | 27 | 1014.0 |
| 20260905141811 | 91 | 310 | 17.4 | 0.0 | 0.00 | 0.00 | 0.00 | 26 | 1014.0 |
| 20260905140311 | 91 | 310 | 17.4 | 0.0 | 0.00 | 0.00 | 0.00 | 26 | 1014.0 |
| 20260905134923 | 91 | 320 | 18.2 | 0.0 | 0.00 | 0.00 | 0.00 | 26 | 1014.0 |
| 20260905133311 | 91 | 320 | 18.2 | 0.0 | 0.00 | 0.00 | 0.00 | 26 | 1014.0 |
| 20260905131814 | 90 | 320 | 17.4 | 0.0 | 0.00 | 0.00 | 0.00 | 27 | 1015.0 |
| 20260905130333 | 90 | 320 | 17.4 | 0.0 | 0.00 | 0.00 | 0.00 | 27 | 1015.0 |
| 20260905124812 | 91 | 310 | 15.6 | 0.0 | 0.00 | 0.00 | 0.00 | 26 | 1015.0 |
| 20260905123312 | 91 | 310 | 15.6 | 0.0 | 0.00 | 0.00 | 0.00 | 26 | 1015.0 |
| 20260905121839 | 91 | 310 | 15.6 | 0.0 | 0.00 | 0.00 | 0.00 | 28 | 1015.0 |
| 20260905120312 | 91 | 310 | 15.6 | 0.0 | 0.00 | 0.00 | 0.00 | 28 | 1015.0 |
| 20260905114811 | 90 | 300 | 7.0 | 0.0 | 0.00 | 0.00 | 0.00 | 27 | 1016.0 |
| 20260905113311 | 90 | 300 | 7.0 | 0.0 | 0.00 | 0.00 | 0.00 | 27 | 1016.0 |
| 20260905111830 | 90 | 320 | 7.8 | 0.0 | 0.00 | 0.00 | 0.00 | 29 | 1016.0 |
| 20260905110311 | 90 | 320 | 7.8 | 0.0 | 0.00 | 0.00 | 0.00 | 29 | 1016.0 |
| 20260905104811 | 90 | 1.7 | 0.0 | 0.00 | 0.00 | 0.00 | 29 | 1016.0 | |
| 20260905103311 | 90 | 1.7 | 0.0 | 0.00 | 0.00 | 0.00 | 29 | 1016.0 | |
| 20260905101811 | 88 | 290 | 5.2 | 0.0 | 0.00 | 0.00 | 0.00 | 31 | 1016.0 |
| 20260905100312 | 88 | 290 | 5.2 | 0.0 | 0.00 | 0.00 | 0.00 | 31 | 1016.0 |
| 20260905094926 | 86 | 1.7 | 0.0 | 0.00 | 0.00 | 0.00 | 35 | 1017.0 | |
| 20260905093311 | 86 | 1.7 | 0.0 | 0.00 | 0.00 | 0.00 | 35 | 1017.0 | |
| 20260905091811 | 84 | 2.6 | 0.0 | 0.00 | 0.00 | 0.00 | 35 | 1017.0 | |
| 20260905090311 | 84 | 2.6 | 0.0 | 0.00 | 0.00 | 0.00 | 35 | 1017.0 | |
| 20260905084811 | 84 | 100 | 4.3 | 0.0 | 0.00 | 0.00 | 0.00 | 37 | 1017.0 |
| 20260905083311 | 84 | 100 | 4.3 | 0.0 | 0.00 | 0.00 | 0.00 | 37 | 1017.0 |
| 20260905081811 | 82 | 1.7 | 0.0 | 0.00 | 0.00 | 0.00 | 37 | 1017.0 | |
| 20260905080312 | 82 | 1.7 | 0.0 | 0.00 | 0.00 | 0.00 | 37 | 1017.0 | |
| 20260905074811 | 79 | 110 | 6.1 | 0.0 | 0.00 | 0.00 | 0.00 | 45 | 1017.0 |
| 20260905073320 | 79 | 110 | 6.1 | 0.0 | 0.00 | 0.00 | 0.00 | 45 | 1017.0 |
| 20260905071812 | 77 | 70 | 2.6 | 0.0 | 0.00 | 0.00 | 0.00 | 47 | 1017.0 |
| 20260905070311 | 77 | 70 | 2.6 | 0.0 | 0.00 | 0.00 | 0.00 | 47 | 1017.0 |
| 20260905064812 | 73 | 80 | 2.6 | 0.0 | 0.00 | 0.00 | 0.00 | 53 | 1017.0 |
| 20260905063312 | 73 | 80 | 2.6 | 0.0 | 0.00 | 0.00 | 0.00 | 53 | 1017.0 |
| 20260905061812 | 68 | 100 | 2.6 | 0.0 | 0.00 | 0.00 | 0.00 | 64 | 1018.0 |
| 20260905060312 | 68 | 100 | 2.6 | 0.0 | 0.00 | 0.00 | 0.00 | 64 | 1018.0 |
| 20260905054811 | 64 | 90 | 1.7 | 0.0 | 0.00 | 0.00 | 0.00 | 68 | 1018.0 |
| 20260905053312 | 64 | 90 | 1.7 | 0.0 | 0.00 | 0.00 | 0.00 | 68 | 1018.0 |
| 20260905051811 | 63 | 1.7 | 0.0 | 0.00 | 0.00 | 0.00 | 73 | 1018.0 | |
| 20260905050311 | 63 | 1.7 | 0.0 | 0.00 | 0.00 | 0.00 | 73 | 1018.0 | |
| 20260905044811 | 57 | 0.9 | 0.0 | 0.00 | 0.00 | 0.00 | 82 | 1018.0 | |
| 20260905043311 | 57 | 0.9 | 0.0 | 0.00 | 0.00 | 0.00 | 82 | 1018.0 | |
| 20260905041811 | 55 | 1.7 | 0.0 | 0.00 | 0.00 | 0.00 | 88 | 1018.0 | |
| 20260905040311 | 55 | 1.7 | 0.0 | 0.00 | 0.00 | 0.00 | 88 | 1018.0 |